DT_LEITURA;HR_LEITURA;MED-PressaoAtm[hPa];VAL-TempExt[oC];VAL-UmidExt[%UR];VAL-TempInt[oC];VAL-UmidInt[%UR];Dir-Vento[grau];Vel-Vento[m/s];Precipitação[mm/h]
21/08/2026;00:04:00;1009,2;;;20,5;83;238;1,8;0,0
21/08/2026;00:09:00;1009,1;;;20,5;83;224;2,0;0,0
21/08/2026;00:14:00;1009,1;;;20,5;83;229;1,8;0,0
21/08/2026;00:19:00;1009,0;;;20,5;83;217;1,6;0,0
21/08/2026;00:24:00;1009,0;;;20,5;83;228;2,2;0,0
21/08/2026;00:29:00;1008,9;;;20,5;83;237;1,9;0,0
21/08/2026;00:34:00;1009,0;;;20,4;83;245;1,6;0,0
21/08/2026;00:39:00;1008,9;;;20,4;83;212;1,6;0,0
21/08/2026;00:44:00;1009,0;;;20,4;83;240;1,3;0,0
21/08/2026;00:49:00;1009,0;;;20,4;83;251;1,3;0,0
21/08/2026;00:54:00;1008,9;;;20,4;83;211;0,8;0,0
21/08/2026;00:59:00;1008,8;;;20,4;83;236;0,9;0,0
21/08/2026;01:04:00;1008,8;;;20,4;83;217;1,1;0,0
21/08/2026;01:09:00;1008,8;;;20,4;83;206;1,0;0,0
21/08/2026;01:14:00;1008,6;;;20,3;83;219;1,6;0,0
21/08/2026;01:19:00;1008,6;;;20,3;83;241;2,2;0,0
21/08/2026;01:24:00;1008,6;;;20,2;83;251;1,3;0,0
21/08/2026;01:29:00;1008,8;;;20,2;83;235;0,7;0,0
21/08/2026;01:34:00;1008,8;;;20,1;83;203;0,6;0,0
21/08/2026;01:39:00;1008,7;;;20,1;83;220;0,4;0,0
21/08/2026;01:44:00;1008,5;;;20,1;83;218;0,7;0,0
21/08/2026;01:49:00;1008,5;;;20,1;83;203;1,4;0,0
21/08/2026;01:54:00;1008,6;;;20,1;83;250;1,5;0,0
21/08/2026;01:59:00;1008,7;;;20,1;83;247;1,9;0,0
21/08/2026;02:04:00;1008,7;;;20,1;83;240;1,8;0,0
21/08/2026;02:09:00;1008,7;;;20,2;83;213;0,9;0,0
21/08/2026;02:14:00;1008,7;;;20,2;83;252;1,6;0,0
21/08/2026;02:19:00;1008,7;;;20,2;83;254;1,6;0,0
21/08/2026;02:24:00;1008,7;;;20,2;83;209;1,4;0,0
21/08/2026;02:29:00;1008,7;;;20,2;83;245;1,6;0,0
21/08/2026;02:34:00;1008,7;;;20,2;83;283;1,2;0,0
21/08/2026;02:39:00;1008,7;;;20,2;83;277;2,1;0,0
21/08/2026;02:44:00;1008,7;;;20,2;83;245;2,8;0,0
21/08/2026;02:49:00;1008,7;;;20,1;83;202;1,4;0,0
21/08/2026;02:54:00;1008,7;;;20,1;83;266;1,2;0,2
21/08/2026;02:59:00;1008,7;;;20,0;82;238;1,7;0,0
21/08/2026;03:04:00;1008,8;;;19,9;83;268;2,4;0,0
21/08/2026;03:09:00;1008,9;;;19,9;83;257;2,2;0,0
21/08/2026;03:14:00;1009,0;;;19,9;83;249;2,5;0,0
21/08/2026;03:19:00;1009,1;;;19,8;83;244;3,0;0,0
21/08/2026;03:24:00;1009,1;;;19,8;83;238;2,5;0,0
21/08/2026;03:29:00;1009,1;;;19,8;83;219;2,5;0,0
21/08/2026;03:34:00;1009,2;;;19,8;83;223;2,7;0,0
21/08/2026;03:39:00;1009,2;;;19,7;83;220;2,6;0,0
21/08/2026;03:44:00;1009,2;;;19,7;83;228;2,8;0,0
21/08/2026;03:49:00;1009,2;;;19,6;83;216;1,5;0,0
21/08/2026;03:54:00;1009,1;;;19,6;83;203;1,1;0,0
21/08/2026;03:59:00;1009,2;;;19,6;83;209;1,4;0,0
21/08/2026;04:04:00;1009,3;;;19,5;83;225;2,3;0,0
21/08/2026;04:09:00;1009,2;;;19,5;83;250;1,7;0,0
21/08/2026;04:14:00;1009,2;;;19,5;83;230;1,5;0,0
21/08/2026;04:19:00;1009,3;;;19,4;83;225;1,5;0,0
21/08/2026;04:24:00;1009,5;;;19,4;83;225;1,7;0,0
21/08/2026;04:29:00;1009,6;;;19,3;83;212;1,4;0,0
21/08/2026;04:34:00;1009,7;;;19,3;83;218;1,4;0,0
21/08/2026;04:39:00;1009,7;;;19,2;83;233;2,1;0,0
21/08/2026;04:44:00;1009,6;;;19,1;83;237;2,8;0,0
21/08/2026;04:49:00;1009,6;;;19,1;83;235;2,4;0,0
21/08/2026;04:54:00;1009,6;;;19,1;83;220;1,4;0,0
21/08/2026;04:59:00;1009,7;;;19,0;83;188;1,5;0,0
21/08/2026;05:04:00;1009,5;;;19,0;83;224;1,8;0,0
21/08/2026;05:09:00;1009,4;;;18,9;83;242;2,1;0,0
21/08/2026;05:14:00;1009,5;;;18,9;83;242;3,1;0,0
21/08/2026;05:19:00;1009,7;;;18,9;83;232;3,0;0,0
21/08/2026;05:24:00;1009,8;;;18,9;83;241;2,8;0,0
21/08/2026;05:29:00;1009,9;;;18,9;83;243;3,0;0,0
21/08/2026;05:34:00;1010,0;;;18,9;83;243;2,9;0,0
21/08/2026;05:39:00;1010,1;;;18,9;83;231;2,7;0,0
21/08/2026;05:44:00;1010,3;;;18,9;83;231;2,7;0,0
21/08/2026;05:49:00;1010,4;;;18,8;83;239;3,0;0,0
21/08/2026;05:54:00;1010,4;;;18,8;83;246;4,7;0,0
21/08/2026;05:59:00;1010,4;;;18,8;83;243;5,7;0,0
21/08/2026;06:04:00;1010,5;;;18,7;83;239;5,5;0,0
21/08/2026;06:09:00;1010,6;;;18,7;83;238;5,1;0,0
21/08/2026;06:14:00;1010,6;;;18,7;83;240;5,1;0,0
21/08/2026;06:19:00;1010,6;;;18,6;83;248;4,4;0,0
21/08/2026;06:24:00;1010,6;;;18,5;83;243;5,1;0,0
21/08/2026;06:29:00;1010,7;;;18,5;83;245;5,0;0,0
21/08/2026;06:34:00;1010,8;;;18,5;83;240;4,9;0,0
21/08/2026;06:39:00;1011,0;;;18,5;83;238;4,7;0,0
21/08/2026;06:44:00;1011,1;;;18,5;83;241;5,1;0,0
21/08/2026;06:49:00;1011,4;;;18,5;83;238;4,6;0,0
21/08/2026;06:54:00;1011,5;;;18,5;83;239;4,3;0,0
21/08/2026;06:59:00;1011,4;;;18,5;83;254;3,6;0,0
21/08/2026;07:04:00;1011,4;;;18,4;83;256;4,1;0,0
21/08/2026;07:09:00;1011,6;;;18,4;83;247;4,2;0,0
21/08/2026;07:14:00;1011,7;;;18,4;83;252;4,2;0,0
21/08/2026;07:19:00;1011,7;;;18,4;83;254;2,9;0,0
21/08/2026;07:24:00;1011,6;;;18,4;83;249;3,8;0,0
21/08/2026;07:29:00;1011,7;;;18,4;83;252;3,7;0,0
21/08/2026;07:34:00;1011,8;;;18,4;83;245;3,6;0,0
21/08/2026;07:39:00;1011,7;;;18,4;83;253;3,3;0,0
21/08/2026;07:44:00;1011,8;;;18,4;83;239;3,1;0,0
21/08/2026;07:49:00;1012,0;;;18,4;83;255;2,1;0,0
21/08/2026;07:54:00;1012,0;;;18,4;83;230;2,4;0,0
21/08/2026;07:59:00;1012,0;;;18,4;83;243;2,6;0,0
21/08/2026;08:04:00;1012,1;;;18,4;84;237;2,6;0,0
21/08/2026;08:09:00;1012,2;;;18,5;84;247;2,5;0,0
21/08/2026;08:14:00;1012,3;;;18,7;85;246;2,8;0,0
21/08/2026;08:19:00;1012,4;;;18,9;86;231;2,9;0,0
21/08/2026;08:24:00;1012,5;;;19,1;86;247;3,1;0,0
21/08/2026;08:29:00;1012,6;;;19,3;86;232;3,9;0,0
21/08/2026;08:34:00;1012,8;;;19,5;86;229;2,4;0,0
21/08/2026;08:39:00;1013,0;;;19,7;85;227;2,2;0,0
21/08/2026;08:44:00;1012,9;;;19,9;85;237;2,4;0,0
21/08/2026;08:49:00;1012,9;;;20,0;85;223;2,9;0,0
21/08/2026;08:54:00;1013,1;;;20,2;85;228;3,2;0,0
21/08/2026;08:59:00;1013,2;;;20,3;84;227;3,1;0,0
21/08/2026;09:04:00;1013,2;;;20,4;84;225;4,0;0,0
21/08/2026;09:09:00;1013,2;;;20,5;84;229;3,3;0,0
21/08/2026;09:14:00;1013,3;;;20,6;83;226;3,6;0,0
21/08/2026;09:19:00;1013,3;;;20,7;83;225;4,2;0,0
21/08/2026;09:24:00;1013,3;;;20,7;83;222;4,3;0,0
21/08/2026;09:29:00;1013,3;;;20,8;83;224;3,8;0,0
21/08/2026;09:34:00;1013,4;;;20,8;83;228;3,2;0,0
21/08/2026;09:39:00;1013,5;;;20,9;83;232;3,7;0,0
21/08/2026;09:44:00;1013,6;;;21,0;83;221;3,9;0,0
21/08/2026;09:49:00;1013,6;;;21,1;83;223;4,0;0,0
21/08/2026;09:54:00;1013,6;;;21,1;82;222;3,8;0,0
21/08/2026;09:59:00;1013,6;;;21,2;82;230;4,0;0,0
21/08/2026;10:04:00;1013,7;;;21,2;82;229;3,9;0,0
21/08/2026;10:09:00;1013,8;;;21,3;82;231;4,1;0,0
21/08/2026;10:14:00;1013,8;;;21,3;82;227;4,6;0,0
21/08/2026;10:19:00;1013,9;;;21,4;82;230;4,9;0,0
21/08/2026;10:24:00;1013,8;;;21,4;82;229;4,9;0,0
21/08/2026;10:29:00;1013,8;;;21,4;82;230;5,0;0,0
21/08/2026;10:34:00;1013,8;;;21,4;82;230;4,8;0,0
21/08/2026;10:39:00;1013,8;;;21,5;82;229;5,6;0,0
21/08/2026;10:44:00;1013,8;;;21,5;82;231;5,0;0,0
21/08/2026;10:49:00;1013,7;;;21,5;82;230;5,3;0,0
21/08/2026;10:54:00;1013,7;;;21,5;82;230;5,3;0,0
21/08/2026;10:59:00;1013,7;;;21,6;82;241;5,3;0,0
21/08/2026;11:04:00;1013,7;;;21,7;82;247;4,5;0,0
21/08/2026;11:09:00;1013,7;;;21,7;82;243;3,2;0,0
21/08/2026;11:14:00;1013,7;;;21,7;82;247;3,2;0,0
21/08/2026;11:19:00;1013,7;;;21,8;82;248;4,8;0,0
21/08/2026;11:24:00;1013,7;;;21,8;81;246;5,0;0,0
21/08/2026;11:29:00;1013,7;;;21,9;81;251;5,8;0,0
21/08/2026;11:34:00;1013,7;;;21,8;80;242;7,4;0,0
21/08/2026;11:39:00;1013,8;;;21,8;80;243;7,1;0,0
21/08/2026;11:44:00;1013,9;;;21,7;80;243;7,8;0,0
21/08/2026;11:49:00;1013,8;;;21,5;80;241;7,3;0,0
21/08/2026;11:54:00;1013,9;;;21,5;80;252;6,2;0,0
21/08/2026;11:59:00;1014,0;;;21,4;81;248;6,1;0,0
21/08/2026;12:04:00;1014,0;;;21,3;81;249;6,6;0,0
21/08/2026;12:09:00;1014,0;;;21,2;81;243;7,6;0,0
21/08/2026;12:14:00;1014,0;;;21,2;81;245;8,0;0,0
21/08/2026;12:19:00;1014,0;;;21,1;81;248;6,5;0,0
21/08/2026;12:24:00;1013,8;;;21,1;81;246;7,3;0,0
21/08/2026;12:29:00;1013,7;;;21,0;81;244;6,9;0,0
21/08/2026;12:34:00;1013,7;;;21,0;81;246;7,4;0,0
21/08/2026;12:39:00;1013,8;;;21,0;81;244;7,5;0,0
21/08/2026;12:44:00;1013,8;;;20,9;81;244;8,1;0,0
21/08/2026;12:49:00;1013,8;;;20,9;80;238;7,6;0,0
21/08/2026;12:54:00;1013,7;;;20,9;80;242;8,1;0,0
21/08/2026;12:59:00;1013,7;;;20,8;80;242;8,7;0,0
21/08/2026;13:04:00;1013,6;;;20,7;80;241;8,1;0,0
21/08/2026;13:09:00;1013,6;;;20,6;80;241;8,7;0,0
21/08/2026;13:14:00;1013,5;;;20,5;80;241;8,1;0,0
21/08/2026;13:19:00;1013,6;;;20,5;80;235;9,1;0,0
21/08/2026;13:24:00;1013,6;;;20,4;80;236;9,1;0,0
21/08/2026;13:29:00;1013,6;;;20,3;80;242;7,4;0,0
21/08/2026;13:34:00;1013,5;;;20,3;80;244;8,2;0,0
21/08/2026;13:39:00;1013,5;;;20,2;80;242;8,6;0,0
21/08/2026;13:44:00;1013,7;;;20,2;80;242;8,4;0,0
21/08/2026;13:49:00;1013,7;;;20,2;80;244;7,6;0,0
21/08/2026;13:54:00;1013,6;;;20,1;80;242;8,4;0,0
21/08/2026;13:59:00;1013,6;;;20,1;80;245;8,3;0,0
21/08/2026;14:04:00;1013,7;;;20,0;80;239;8,3;0,0
21/08/2026;14:09:00;1013,7;;;20,0;80;242;7,9;0,0
21/08/2026;14:14:00;1013,8;;;19,9;80;241;8,6;0,0
21/08/2026;14:19:00;1013,9;;;19,9;80;238;9,4;0,0
21/08/2026;14:24:00;1013,8;;;19,9;80;241;9,5;0,0
21/08/2026;14:29:00;1013,9;;;19,8;80;243;9,1;0,0
21/08/2026;14:34:00;1014,0;;;19,8;80;236;9,5;0,0
21/08/2026;14:39:00;1014,1;;;19,8;80;235;9,2;0,0
21/08/2026;14:44:00;1014,3;;;19,7;80;229;9,6;0,0
21/08/2026;14:49:00;1014,4;;;19,7;80;231;8,0;0,0
21/08/2026;14:54:00;1014,3;;;19,7;80;236;8,6;0,0
21/08/2026;14:59:00;1014,3;;;19,7;80;235;9,1;0,0
21/08/2026;15:04:00;1014,4;;;19,8;80;233;9,5;0,0
21/08/2026;15:09:00;1014,5;;;19,8;80;230;9,2;0,0
21/08/2026;15:14:00;1014,5;;;19,8;80;228;8,6;0,0
21/08/2026;15:19:00;1014,4;;;19,8;80;233;9,2;0,0
21/08/2026;15:24:00;1014,4;;;19,8;79;227;8,3;0,0
21/08/2026;15:29:00;1014,4;;;19,8;79;226;8,0;0,0
21/08/2026;15:34:00;1014,4;;;19,8;79;228;7,0;0,0
21/08/2026;15:39:00;1014,4;;;19,8;79;225;8,0;0,0
21/08/2026;15:44:00;1014,4;;;19,8;79;226;8,6;0,0
21/08/2026;15:49:00;1014,4;;;19,8;78;230;9,0;0,0
21/08/2026;15:54:00;1014,4;;;19,8;78;233;8,4;0,0
21/08/2026;15:59:00;1014,6;;;19,8;79;227;7,0;0,0
21/08/2026;16:04:00;1014,7;;;19,8;79;228;8,4;0,0
21/08/2026;16:09:00;1014,8;;;19,8;78;228;8,6;0,0
21/08/2026;16:14:00;1014,8;;;19,8;78;229;8,2;0,0
21/08/2026;16:19:00;1015,0;;;19,8;77;232;7,6;0,0
21/08/2026;16:24:00;1015,1;;;19,8;78;226;7,0;0,0
21/08/2026;16:29:00;1015,2;;;19,8;78;233;6,6;0,0
21/08/2026;16:34:00;1015,3;;;19,9;78;228;7,3;0,0
21/08/2026;16:39:00;1015,5;;;19,9;77;226;7,1;0,0
21/08/2026;16:44:00;1015,6;;;19,9;77;229;7,1;0,0
21/08/2026;16:49:00;1015,7;;;19,9;77;229;6,9;0,0
21/08/2026;16:54:00;1015,8;;;19,8;77;227;5,8;0,0
21/08/2026;16:59:00;1016,0;;;19,8;77;229;5,3;0,0
21/08/2026;17:04:00;1016,1;;;19,8;77;233;7,2;0,0
21/08/2026;17:09:00;1016,1;;;19,6;77;230;8,0;0,0
21/08/2026;17:14:00;1016,3;;;19,4;76;224;6,3;0,0
21/08/2026;17:19:00;1016,4;;;19,2;77;230;5,4;0,0
21/08/2026;17:24:00;1016,5;;;19,0;77;232;5,5;0,0
21/08/2026;17:29:00;1016,6;;;18,8;78;229;5,4;0,0
21/08/2026;17:34:00;1016,7;;;18,7;78;234;4,8;0,0
21/08/2026;17:39:00;1016,8;;;18,5;78;237;4,5;0,0
21/08/2026;17:44:00;1016,8;;;18,5;78;237;6,1;0,0
21/08/2026;17:49:00;1016,8;;;18,3;78;227;6,0;0,0
21/08/2026;17:54:00;1016,9;;;18,2;78;230;4,6;0,0
21/08/2026;17:59:00;1017,0;;;18,1;78;237;5,2;0,0
21/08/2026;18:04:00;1017,1;;;18,0;79;230;5,3;0,0
21/08/2026;18:09:00;1017,3;;;17,9;79;228;5,1;0,0
21/08/2026;18:14:00;1017,3;;;17,8;79;229;5,5;0,0
21/08/2026;18:19:00;1017,4;;;17,7;79;235;5,6;0,0
21/08/2026;18:24:00;1017,4;;;17,6;79;242;5,2;0,0
21/08/2026;18:29:00;1017,5;;;17,5;79;234;5,4;0,0
21/08/2026;18:34:00;1017,6;;;17,4;79;246;5,9;0,0
21/08/2026;18:39:00;1017,7;;;17,3;79;231;4,6;0,0
21/08/2026;18:44:00;1017,7;;;17,2;79;233;4,8;0,0
21/08/2026;18:49:00;1017,8;;;17,1;79;233;4,4;0,0
21/08/2026;18:54:00;1017,9;;;17,1;79;239;4,0;0,0
21/08/2026;18:59:00;1018,0;;;17,0;79;233;4,3;0,0
21/08/2026;19:04:00;1018,1;;;17,0;79;230;4,2;0,0
21/08/2026;19:09:00;1018,1;;;16,9;79;232;4,8;0,0
21/08/2026;19:14:00;1018,2;;;16,9;79;229;4,0;0,0
21/08/2026;19:19:00;1018,2;;;16,8;79;235;4,6;0,0
21/08/2026;19:24:00;1018,3;;;16,8;79;234;4,9;0,0
21/08/2026;19:29:00;1018,5;;;16,8;79;233;4,1;0,0
21/08/2026;19:34:00;1018,5;;;16,7;79;244;4,2;0,0
21/08/2026;19:39:00;1018,6;;;16,7;79;235;4,4;0,0
21/08/2026;19:44:00;1018,6;;;16,7;79;235;4,9;0,0
21/08/2026;19:49:00;1018,6;;;16,8;79;227;4,8;0,0
21/08/2026;19:54:00;1018,7;;;16,8;79;228;5,0;0,0
21/08/2026;19:59:00;1018,7;;;16,8;79;235;5,1;0,0
21/08/2026;20:04:00;1018,9;;;16,8;79;231;5,4;0,0
21/08/2026;20:09:00;1019,0;;;16,9;79;224;5,3;0,0
21/08/2026;20:14:00;1019,1;;;16,9;79;225;4,2;0,0
21/08/2026;20:19:00;1019,1;;;16,9;79;232;4,4;0,0
21/08/2026;20:24:00;1019,2;;;16,9;78;234;3,9;0,0
21/08/2026;20:29:00;1019,3;;;16,9;78;229;4,0;0,0
21/08/2026;20:34:00;1019,4;;;16,9;78;236;3,0;0,0
21/08/2026;20:39:00;1019,4;;;16,9;78;246;4,0;0,0
21/08/2026;20:44:00;1019,5;;;16,9;78;243;3,0;0,0
21/08/2026;20:49:00;1019,5;;;16,8;78;250;2,3;0,0
21/08/2026;20:54:00;1019,5;;;16,8;78;244;2,7;0,0
21/08/2026;20:59:00;1019,5;;;16,7;78;257;3,1;0,0
21/08/2026;21:04:00;1019,6;;;16,6;78;249;3,4;0,0
21/08/2026;21:09:00;1019,7;;;16,6;78;249;2,7;0,0
21/08/2026;21:14:00;1019,7;;;16,5;78;245;3,2;0,0
21/08/2026;21:19:00;1019,6;;;16,5;78;238;2,6;0,0
21/08/2026;21:24:00;1019,6;;;16,4;78;241;3,5;0,0
21/08/2026;21:29:00;1019,6;;;16,4;78;238;3,0;0,0
21/08/2026;21:34:00;1019,6;;;16,4;78;242;3,4;0,0
21/08/2026;21:39:00;1019,5;;;16,3;78;241;3,2;0,0
21/08/2026;21:44:00;1019,5;;;16,3;78;239;2,4;0,0
21/08/2026;21:49:00;1019,5;;;16,3;78;238;2,5;0,0
21/08/2026;21:54:00;1019,5;;;16,3;78;235;2,6;0,0
21/08/2026;21:59:00;1019,5;;;16,2;78;232;2,4;0,0
21/08/2026;22:04:00;1019,4;;;16,1;78;231;2,4;0,0
21/08/2026;22:09:00;1019,5;;;16,1;78;240;2,3;0,0
21/08/2026;22:14:00;1019,5;;;16,0;78;239;2,1;0,0
21/08/2026;22:19:00;1019,5;;;16,0;78;233;2,5;0,0
21/08/2026;22:24:00;1019,6;;;15,9;78;228;2,7;0,0
21/08/2026;22:29:00;1019,6;;;15,9;78;231;2,4;0,0
21/08/2026;22:34:00;1019,6;;;15,8;78;229;2,4;0,0
21/08/2026;22:39:00;1019,7;;;15,8;78;226;1,5;0,0
21/08/2026;22:44:00;1019,8;;;15,8;78;221;2,0;0,0
21/08/2026;22:49:00;1019,9;;;15,7;78;224;1,8;0,0
21/08/2026;22:54:00;1020,0;;;15,7;78;213;1,4;0,0
21/08/2026;22:59:00;1020,1;;;15,6;78;231;2,1;0,0
21/08/2026;23:04:00;1020,1;;;15,6;79;244;3,2;0,0
21/08/2026;23:09:00;1020,1;;;15,7;79;241;2,8;0,0
21/08/2026;23:14:00;1020,1;;;15,7;79;244;3,6;0,0
21/08/2026;23:19:00;1020,1;;;15,8;79;233;3,1;0,0
21/08/2026;23:24:00;1020,1;;;15,8;79;241;3,3;0,0
21/08/2026;23:29:00;1020,1;;;15,9;79;239;3,7;0,0
21/08/2026;23:34:00;1020,1;;;15,9;78;230;3,7;0,0
21/08/2026;23:39:00;1020,1;;;16,0;78;243;3,3;0,0
21/08/2026;23:44:00;1020,2;;;16,0;78;229;4,5;0,0
21/08/2026;23:49:00;1020,2;;;16,0;78;228;4,6;0,0
21/08/2026;23:54:00;1020,2;;;16,0;78;241;4,0;0,0
21/08/2026;23:59:00;1020,2;;;16,0;78;234;4,4;0,0
